XE1MMG-6 Weather Reports


Display with metric or nautical units.
time (UTC)temp
F
wind
direction
speed
MPH
gust
MPH
rain 1hr
in
rain 24hr
in
rain mn
in
humidity
%
barometer
mb
20260502122806 86 0.0 0.0 0.00 0.00 0.00 35 811.4
20260502121751 86 0.0 0.0 0.00 0.00 0.00 35 811.3
20260502120737 86 0.0 0.0 0.00 0.00 0.00 35 811.1
20260502115723 86 0.0 0.0 0.00 0.00 0.00 35 810.9
20260502114709 86 0.0 0.0 0.00 0.00 0.00 35 810.8
20260502113655 86 0.0 0.0 0.00 0.00 0.00 35 810.8
20260502112640 86 0.0 0.0 0.00 0.00 0.00 35 810.7
20260502111626 86 0.0 0.0 0.00 0.00 0.00 35 810.7
20260502110612 86 0.0 0.0 0.00 0.00 0.00 35 810.7
20260502105557 86 0.0 0.0 0.00 0.00 0.00 34 810.5
20260502104543 88 0.0 0.0 0.00 0.00 0.00 33 810.4
20260502103529 88 0.0 0.0 0.00 0.00 0.00 32 810.3
20260502102515 89 0.0 0.0 0.00 0.00 0.00 32 810.2
20260502101501 89 0.0 0.0 0.00 0.00 0.00 32 810.1
20260502100446 91 0.0 0.0 0.00 0.00 0.00 30 810.1
20260502091335 89 0.0 0.0 0.00 0.00 0.00 31 809.7
20260502090321 89 0.0 0.0 0.00 0.00 0.00 30 809.5
20260502071045 91 0.0 0.0 0.00 0.00 0.00 27 810.0
20260502070031 92 0.0 0.0 0.00 0.00 0.00 27 810.1
20260502065017 92 0.0 0.0 0.00 0.00 0.00 28 810.1
20260502064003 91 0.0 0.0 0.00 0.00 0.00 26 810.0
20260502062948 92 0.0 0.0 0.00 0.00 0.00 28 810.0
20260502061934 91 0.0 0.0 0.00 0.00 0.00 25 809.8
20260502060920 91 0.0 0.0 0.00 0.00 0.00 27 810.1
20260502055906 91 0.0 0.0 0.00 0.00 0.00 26 810.2
20260502054852 91 0.0 0.0 0.00 0.00 0.00 26 810.2
20260502053838 91 0.0 0.0 0.00 0.00 0.00 26 810.1
20260502052824 93 0.0 0.0 0.00 0.00 0.00 26 810.1
20260502051810 94 0.0 0.0 0.00 0.00 0.00 26 810.1
20260502050755 92 0.0 0.0 0.00 0.00 0.00 25 810.0
20260502045741 91 0.0 0.0 0.00 0.00 0.00 24 809.9
20260502044727 91 0.0 0.0 0.00 0.00 0.00 22 809.8
20260502043713 92 0.0 0.0 0.00 0.00 0.00 24 809.7
20260502042658 92 0.0 0.0 0.00 0.00 0.00 25 809.6
20260502041644 93 0.0 0.0 0.00 0.00 0.00 26 809.6
20260502040630 92 0.0 0.0 0.00 0.00 0.00 25 809.5
20260502035616 91 0.0 0.0 0.00 0.00 0.00 25 809.4
20260502034601 91 0.0 0.0 0.00 0.00 0.00 23 809.4
20260502033548 92 0.0 0.0 0.00 0.00 0.00 25 809.3
20260502032533 92 0.0 0.0 0.00 0.00 0.00 24 809.3
20260502031519 94 0.0 0.0 0.00 0.00 0.00 27 809.2
20260502030505 94 0.0 0.0 0.00 0.00 0.00 26 809.0
20260502025451 94 0.0 0.0 0.00 0.00 0.00 26 808.8
20260502024437 95 0.0 0.0 0.00 0.00 0.00 27 808.7
20260502023422 95 0.0 0.0 0.00 0.00 0.00 27 808.4
20260502022408 94 0.0 0.0 0.00 0.00 0.00 26 808.3
20260502021354 94 0.0 0.0 0.00 0.00 0.00 25 808.3
20260502020339 94 0.0 0.0 0.00 0.00 0.00 25 808.1
20260502015325 94 0.0 0.0 0.00 0.00 0.00 25 808.0
20260502014311 93 0.0 0.0 0.00 0.00 0.00 25 807.8
20260502013257 93 0.0 0.0 0.00 0.00 0.00 25 807.6
20260502012243 94 0.0 0.0 0.00 0.00 0.00 25 807.6
20260502011228 94 0.0 0.0 0.00 0.00 0.00 24 807.6
20260502010214 94 0.0 0.0 0.00 0.00 0.00 24 807.6
20260502005200 94 0.0 0.0 0.00 0.00 0.00 24 807.5
20260502004146 95 0.0 0.0 0.00 0.00 0.00 25 807.4
20260502003132 95 0.0 0.0 0.00 0.00 0.00 24 807.1
20260502002118 93 0.0 0.0 0.00 0.00 0.00 23 806.8
20260502001103 94 0.0 0.0 0.00 0.00 0.00 24 806.6
20260502000049 96 0.0 0.0 0.00 0.00 0.00 24 806.6
20260501235035 95 0.0 0.0 0.00 0.00 0.00 24 806.4
20260501234021 95 0.0 0.0 0.00 0.00 0.00 23 806.5
20260501233007 95 0.0 0.0 0.00 0.00 0.00 23 806.6
20260501231952 96 0.0 0.0 0.00 0.00 0.00 23 806.5
20260501230938 95 0.0 0.0 0.00 0.00 0.00 23 806.6
20260501225924 95 0.0 0.0 0.00 0.00 0.00 23 806.4
20260501224910 93 0.0 0.0 0.00 0.00 0.00 23 806.2
20260501223856 93 0.0 0.0 0.00 0.00 0.00 23 806.3
20260501222842 94 0.0 0.0 0.00 0.00 0.00 23 806.1
20260501221827 93 0.0 0.0 0.00 0.00 0.00 24 806.2
20260501220813 93 0.0 0.0 0.00 0.00 0.00 24 806.3
20260501215759 92 0.0 0.0 0.00 0.00 0.00 25 806.5
20260501214745 91 0.0 0.0 0.00 0.00 0.00 25 806.6
20260501213731 91 0.0 0.0 0.00 0.00 0.00 26 806.6
20260501212716 89 0.0 0.0 0.00 0.00 0.00 26 806.8
20260501211702 90 0.0 0.0 0.00 0.00 0.00 26 806.8
20260501210648 91 0.0 0.0 0.00 0.00 0.00 26 806.8
20260501205634 92 0.0 0.0 0.00 0.00 0.00 25 806.9
20260501204620 92 0.0 0.0 0.00 0.00 0.00 26 807.1
20260501203606 90 0.0 0.0 0.00 0.00 0.00 26 807.1
20260501202551 91 0.0 0.0 0.00 0.00 0.00 26 807.3
20260501201537 91 0.0 0.0 0.00 0.00 0.00 26 807.4
20260501200523 91 0.0 0.0 0.00 0.00 0.00 26 807.6
20260501195509 91 0.0 0.0 0.00 0.00 0.00 27 807.7
20260501194455 91 0.0 0.0 0.00 0.00 0.00 27 807.9
20260501193440 91 0.0 0.0 0.00 0.00 0.00 27 808.1
20260501192426 91 0.0 0.0 0.00 0.00 0.00 27 808.3
20260501191412 90 0.0 0.0 0.00 0.00 0.00 27 808.5
20260501190358 88 0.0 0.0 0.00 0.00 0.00 28 808.7
20260501185344 88 0.0 0.0 0.00 0.00 0.00 28 808.8
20260501184329 90 0.0 0.0 0.00 0.00 0.00 27 808.8
20260501183315 89 0.0 0.0 0.00 0.00 0.00 28 809.1
20260501182305 88 0.0 0.0 0.00 0.00 0.00 28 809.2
20260501181247 88 0.0 0.0 0.00 0.00 0.00 29 809.3
20260501180233 86 0.0 0.0 0.00 0.00 0.00 30 809.5
20260501175218 88 0.0 0.0 0.00 0.00 0.00 29 809.7
20260501174204 87 0.0 0.0 0.00 0.00 0.00 28 809.8
20260501173150 88 0.0 0.0 0.00 0.00 0.00 30 809.9
20260501172136 87 0.0 0.0 0.00 0.00 0.00 30 809.8
20260501171122 87 0.0 0.0 0.00 0.00 0.00 31 810.0
20260501170108 87 0.0 0.0 0.00 0.00 0.00 33 810.1
20260501165053 87 0.0 0.0 0.00 0.00 0.00 32 810.3
20260501164039 87 0.0 0.0 0.00 0.00 0.00 35 810.3
20260501163025 87 0.0 0.0 0.00 0.00 0.00 33 810.3
20260501162011 87 0.0 0.0 0.00 0.00 0.00 33 810.4
20260501160957 87 0.0 0.0 0.00 0.00 0.00 31 810.5
20260501155942 87 0.0 0.0 0.00 0.00 0.00 31 810.6
20260501154928 88 0.0 0.0 0.00 0.00 0.00 29 810.7
20260501153914 87 0.0 0.0 0.00 0.00 0.00 28 810.7
20260501152900 87 0.0 0.0 0.00 0.00 0.00 28 810.8
20260501151846 88 0.0 0.0 0.00 0.00 0.00 27 810.8
20260501150831 86 0.0 0.0 0.00 0.00 0.00 28 810.8
20260501145817 87 0.0 0.0 0.00 0.00 0.00 26 810.8
20260501144803 88 0.0 0.0 0.00 0.00 0.00 25 810.9
20260501143749 88 0.0 0.0 0.00 0.00 0.00 25 810.8
20260501142735 87 0.0 0.0 0.00 0.00 0.00 25 810.7